Hourly Weather Aligarh

Today, 24 November, Tuesday

Time Temperature Precipitation Wind Pressure Humidity
00:00 +16°C° 0 mm 1 mps 745 mmHg 23%
01:00 +16°C° 0 mm 1 mps 745 mmHg 23%
02:00 +16°C° 0 mm 1 mps 745 mmHg 23%
03:00 +15°C° 0 mm 1 mps 745 mmHg 24%
04:00 +15°C° 0 mm 1 mps 745 mmHg 24%
05:00 +14°C° 0 mm 1 mps 745 mmHg 25%
06:00 +15°C° 0 mm 0 mps 745 mmHg 24%
07:00 +16°C° 0 mm 0 mps 746 mmHg 24%
08:00 +17°C° 0 mm 0 mps 747 mmHg 23%
09:00 +19°C° 0 mm 0 mps 746 mmHg 21%
10:00 +21°C° 0 mm 0 mps 746 mmHg 19%
11:00 +24°C° 0 mm 0 mps 746 mmHg 17%
12:00 +24°C° 0 mm 0 mps 746 mmHg 17%
13:00 +25°C° 0 mm 0 mps 745 mmHg 16%
14:00 +25°C° 0 mm 0 mps 744 mmHg 15%
15:00 +23°C° 0 mm 0 mps 744 mmHg 17%
16:00 +22°C° 0 mm 0 mps 744 mmHg 19%
17:00 +22°C° 0 mm 1 mps 744 mmHg 21%
18:00 +21°C° 0 mm 1 mps 744 mmHg 21%
19:00 +21°C° 0 mm 1 mps 745 mmHg 22%
20:00 +20°C° 0 mm 1 mps 745 mmHg 22%
21:00 +20°C° 0 mm 1 mps 745 mmHg 22%
22:00 +19°C° 0 mm 1 mps 745 mmHg 22%
23:00 +18°C° 0 mm 2 mps 745 mmHg 23%

Tomorrow, 25 November, Wednesday

Time Temperature Precipitation Wind Pressure Humidity
00:00 +18°C° 0 mm 2 mps 745 mmHg 23%
01:00 +19°C° 0 mm 1 mps 745 mmHg 23%
02:00 +18°C° 0 mm 1 mps 744 mmHg 23%
03:00 +18°C° 0 mm 1 mps 744 mmHg 25%
04:00 +18°C° 0 mm 1 mps 745 mmHg 26%
05:00 +16°C° 0 mm 1 mps 745 mmHg 28%
06:00 +18°C° 0 mm 1 mps 745 mmHg 29%
07:00 +19°C° 0 mm 1 mps 746 mmHg 29%
08:00 +20°C° 0 mm 1 mps 747 mmHg 30%
09:00 +22°C° 0 mm 1 mps 747 mmHg 27%
10:00 +24°C° 0 mm 1 mps 747 mmHg 24%
11:00 +26°C° 0 mm 1 mps 746 mmHg 21%
12:00 +26°C° 0 mm 1 mps 746 mmHg 20%
13:00 +27°C° 0 mm 1 mps 745 mmHg 19%
14:00 +27°C° 0 mm 1 mps 744 mmHg 18%
15:00 +26°C° 0 mm 1 mps 744 mmHg 20%
16:00 +24°C° 0 mm 2 mps 744 mmHg 23%
17:00 +23°C° 0 mm 2 mps 744 mmHg 25%
18:00 +21°C° 0 mm 2 mps 745 mmHg 27%
19:00 +20°C° 0 mm 2 mps 745 mmHg 29%
20:00 +19°C° 0 mm 2 mps 746 mmHg 31%
21:00 +18°C° 0 mm 2 mps 746 mmHg 35%
22:00 +18°C° 0 mm 3 mps 746 mmHg 40%
23:00 +17°C° 0 mm 3 mps 746 mmHg 44%

Day after tomorrow, 26 November, Thursday

Time Temperature Precipitation Wind Pressure Humidity
00:00 +17°C° 0 mm 3 mps 746 mmHg 47%
01:00 +16°C° 0 mm 3 mps 746 mmHg 49%
02:00 +16°C° 0 mm 2 mps 746 mmHg 52%
03:00 +16°C° 0 mm 2 mps 746 mmHg 53%
04:00 +16°C° 0 mm 2 mps 746 mmHg 55%
05:00 +16°C° 0 mm 2 mps 746 mmHg 56%
06:00 +17°C° 0 mm 2 mps 746 mmHg 53%
07:00 +18°C° 0 mm 2 mps 747 mmHg 50%
08:00 +19°C° 0 mm 2 mps 748 mmHg 48%
09:00 +21°C° 0 mm 2 mps 748 mmHg 41%
10:00 +25°C° 0 mm 2 mps 748 mmHg 35%
11:00 +27°C° 0 mm 3 mps 748 mmHg 29%
12:00 +28°C° 0 mm 3 mps 747 mmHg 27%
13:00 +29°C° 0 mm 3 mps 746 mmHg 26%
14:00 +29°C° 0 mm 3 mps 746 mmHg 24%
15:00 +28°C° 0 mm 3 mps 746 mmHg 27%
16:00 +26°C° 0 mm 3 mps 746 mmHg 31%
17:00 +25°C° 0 mm 3 mps 745 mmHg 34%
18:00 +24°C° 0 mm 3 mps 746 mmHg 35%
19:00 +22°C° 0 mm 3 mps 746 mmHg 37%
20:00 +21°C° 0 mm 4 mps 747 mmHg 39%
21:00 +20°C° 0 mm 3 mps 747 mmHg 41%
22:00 +20°C° 0 mm 3 mps 747 mmHg 43%
23:00 +19°C° 0 mm 3 mps 747 mmHg 45%

27 November, Friday

Time Temperature Precipitation Wind Pressure Humidity
00:00 +18°C° 0 mm 3 mps 747 mmHg 46%
01:00 +18°C° 0 mm 3 mps 747 mmHg 47%
02:00 +17°C° 0 mm 3 mps 747 mmHg 47%
03:00 +17°C° 0 mm 3 mps 747 mmHg 48%
04:00 +17°C° 0 mm 3 mps 747 mmHg 48%
05:00 +16°C° 0 mm 3 mps 747 mmHg 48%
06:00 +17°C° 0 mm 3 mps 747 mmHg 46%
07:00 +18°C° 0 mm 4 mps 748 mmHg 44%
08:00 +19°C° 0 mm 4 mps 749 mmHg 43%
09:00 +21°C° 0 mm 4 mps 749 mmHg 37%
10:00 +23°C° 0 mm 4 mps 749 mmHg 32%
11:00 +26°C° 0 mm 4 mps 749 mmHg 27%
12:00 +27°C° 0 mm 4 mps 748 mmHg 26%
13:00 +27°C° 0 mm 4 mps 747 mmHg 25%
14:00 +28°C° 0 mm 4 mps 747 mmHg 24%
15:00 +26°C° 0 mm 4 mps 746 mmHg 27%
16:00 +24°C° 0 mm 3 mps 746 mmHg 31%
17:00 +21°C° 0 mm 2 mps 746 mmHg 35%
18:00 +20°C° 0 mm 2 mps 746 mmHg 37%
19:00 +20°C° 0 mm 3 mps 746 mmHg 40%
20:00 +19°C° 0 mm 3 mps 747 mmHg 42%
21:00 +18°C° 0 mm 3 mps 747 mmHg 43%
22:00 +18°C° 0 mm 3 mps 747 mmHg 44%
23:00 +17°C° 0 mm 3 mps 747 mmHg 45%

28 November, Saturday

Time Temperature Precipitation Wind Pressure Humidity
00:00 +17°C° 0 mm 3 mps 747 mmHg 46%
01:00 +16°C° 0 mm 3 mps 747 mmHg 46%
02:00 +16°C° 0 mm 3 mps 747 mmHg 46%
03:00 +16°C° 0 mm 3 mps 746 mmHg 46%
04:00 +15°C° 0 mm 2 mps 746 mmHg 46%
05:00 +15°C° 0 mm 2 mps 746 mmHg 46%
06:00 +16°C° 0 mm 3 mps 747 mmHg 44%
07:00 +17°C° 0 mm 3 mps 747 mmHg 41%
08:00 +17°C° 0 mm 3 mps 748 mmHg 39%
09:00 +20°C° 0 mm 3 mps 748 mmHg 33%
10:00 +24°C° 0 mm 3 mps 748 mmHg 28%
11:00 +26°C° 0 mm 3 mps 748 mmHg 22%
12:00 +27°C° 0 mm 3 mps 747 mmHg 21%
13:00 +28°C° 0 mm 3 mps 746 mmHg 19%
14:00 +29°C° 0 mm 3 mps 746 mmHg 18%
15:00 +27°C° 0 mm 3 mps 745 mmHg 20%
16:00 +25°C° 0 mm 2 mps 745 mmHg 23%
17:00 +23°C° 0 mm 2 mps 745 mmHg 26%
18:00 +21°C° 0 mm 2 mps 745 mmHg 27%
19:00 +20°C° 0 mm 2 mps 746 mmHg 28%
20:00 +20°C° 0 mm 1 mps 746 mmHg 29%
21:00 +20°C° 0 mm 1 mps 746 mmHg 31%
22:00 +19°C° 0 mm 1 mps 746 mmHg 32%
23:00 +18°C° 0 mm 1 mps 746 mmHg 33%

29 November, Sunday

Time Temperature Precipitation Wind Pressure Humidity
00:00 +18°C° 0 mm 1 mps 746 mmHg 34%
01:00 +18°C° 0 mm 1 mps 746 mmHg 34%
02:00 +18°C° 0 mm 1 mps 745 mmHg 35%
03:00 +16°C° 0 mm 1 mps 745 mmHg 36%
04:00 +16°C° 0 mm 1 mps 745 mmHg 37%
05:00 +15°C° 0 mm 1 mps 745 mmHg 37%
06:00 +16°C° 0 mm 1 mps 746 mmHg 36%
07:00 +18°C° 0 mm 1 mps 746 mmHg 34%
08:00 +19°C° 0 mm 1 mps 747 mmHg 32%
09:00 +21°C° 0 mm 1 mps 747 mmHg 28%
10:00 +24°C° 0 mm 1 mps 747 mmHg 24%
11:00 +26°C° 0 mm 1 mps 747 mmHg 20%
12:00 +27°C° 0 mm 2 mps 746 mmHg 19%
13:00 +28°C° 0 mm 2 mps 745 mmHg 17%
14:00 +28°C° 0 mm 2 mps 745 mmHg 16%
15:00 +26°C° 0 mm 2 mps 745 mmHg 18%
16:00 +25°C° 0 mm 1 mps 744 mmHg 20%
17:00 +23°C° 0 mm 1 mps 744 mmHg 22%
18:00 +22°C° 0 mm 1 mps 745 mmHg 22%
19:00 +21°C° 0 mm 1 mps 745 mmHg 23%
20:00 +20°C° 0 mm 1 mps 745 mmHg 24%
21:00 +19°C° 0 mm 1 mps 745 mmHg 24%
22:00 +19°C° 0 mm 1 mps 745 mmHg 24%
23:00 +18°C° 0 mm 1 mps 745 mmHg 24%
Show more